Amelia, Virginia, United States
Lat: 37.37N, Lon: 77.92W
Wx Zone: VAZ068
Local Info
Past Weather Observations for Monday, May 18, 2015

NOTE: This archive is for the closest National Weather Service station to Amelia. Information may differ from the station used for current weather conditions.

Click here for Long-term Archive

Time Weather Temperature Dewpoint Humidity Pressure Winds Precip Visibility
23:55
Mostly Cloudy
72°F / 22°C 72°F / 22°C 100% 30.01 in
(1016 mb)
SW 5.8 mph
(SW 9 kph)
- 7SM
23:35
Overcast
Light Rain
75°F / 24°C 72°F / 22°C 89% 30.01 in
(1016 mb)
Calm - 10SM
23:15
Overcast
73°F / 23°C 70°F / 21°C 89% 30.04 in
(1017 mb)
Calm - 10SM
22:55
Mostly Cloudy
72°F / 22°C 70°F / 21°C 94% 30.04 in
(1017 mb)
Calm - 10SM
22:35
Clear
72°F / 22°C 70°F / 21°C 94% 30.04 in
(1017 mb)
Calm - 10SM
22:15
Clear
72°F / 22°C 70°F / 21°C 94% 30.04 in
(1017 mb)
Calm - 10SM
21:55
Partly Cloudy
72°F / 22°C 72°F / 22°C 100% 30.04 in
(1017 mb)
Calm - 7SM
21:35
Overcast
73°F / 23°C 72°F / 22°C 94% 30.04 in
(1017 mb)
Calm - 10SM
21:15
Overcast
73°F / 23°C 72°F / 22°C 94% 30.04 in
(1017 mb)
Calm - 10SM
20:55
Mostly Cloudy
72°F / 22°C 70°F / 21°C 94% 30.04 in
(1017 mb)
Calm - 7SM
20:35
Clear
72°F / 22°C 70°F / 21°C 94% 30.04 in
(1017 mb)
Calm - 10SM
20:15
Partly Cloudy
73°F / 23°C 72°F / 22°C 94% 30.04 in
(1017 mb)
Calm - 10SM
19:55
Partly Cloudy
73°F / 23°C 72°F / 22°C 94% 30.04 in
(1017 mb)
Calm - 10SM
19:35
Partly Cloudy
75°F / 24°C 72°F / 22°C 89% 30.04 in
(1017 mb)
Calm - 10SM
19:15
Partly Cloudy
77°F / 25°C 72°F / 22°C 83% 30.04 in
(1017 mb)
Calm - 10SM
18:55
Partly Cloudy
81°F / 27°C 70°F / 21°C 70% 30.04 in
(1017 mb)
Calm - 10SM
18:35
Clear
82°F / 28°C 70°F / 21°C 66% 30.04 in
(1017 mb)
Calm - 10SM
18:15
Clear
84°F / 29°C 68°F / 20°C 58% 30.04 in
(1017 mb)
E 3.5 mph
(E 6 kph)
- 10SM
17:55
Partly Cloudy
82°F / 28°C 68°F / 20°C 62% 30.01 in
(1016 mb)
Calm - 10SM
17:35
Mostly Cloudy
84°F / 29°C 70°F / 21°C 62% 30.04 in
(1017 mb)
Calm - 10SM
17:15
Mostly Cloudy
86°F / 30°C 68°F / 20°C 55% 30.04 in
(1017 mb)
Calm - 10SM
16:55
Partly Cloudy
88°F / 31°C 66°F / 19°C 49% 30.04 in
(1017 mb)
Calm - 10SM
16:35
Partly Cloudy
91°F / 33°C 63°F / 17°C 38% 30.04 in
(1017 mb)
SW 3.5 mph
(SW 6 kph)
- 10SM
16:15
Mostly Cloudy
90°F / 32°C 63°F / 17°C 41% 30.04 in
(1017 mb)
W 4.6 mph
(W 7 kph)
- 10SM
15:55
Partly Cloudy
91°F / 33°C 61°F / 16°C 36% 30.04 in
(1017 mb)
SSW 4.6 mph
(SSW 7 kph)
- 10SM
15:35
Partly Cloudy
91°F / 33°C 61°F / 16°C 36% 30.04 in
(1017 mb)
SSW 5.8 mph
(SSW 9 kph)
- 10SM
15:15
Partly Cloudy
93°F / 34°C 59°F / 15°C 32% 30.04 in
(1017 mb)
SSW 5.8 mph
(SSW 9 kph)
- 10SM
14:55
Partly Cloudy
91°F / 33°C 61°F / 16°C 36% 30.06 in
(1018 mb)
SW 5.8 mph
(SW 9 kph)
- 10SM
14:35
Partly Cloudy
93°F / 34°C 59°F / 15°C 32% 30.06 in
(1018 mb)
SSW 3.5 mph
(SSW 6 kph)
- 10SM
14:15
Clear
91°F / 33°C 63°F / 17°C 38% 30.06 in
(1018 mb)
Calm - 10SM
13:55
Clear
90°F / 32°C 61°F / 16°C 38% 30.06 in
(1018 mb)
Calm - 10SM
13:35
Clear
91°F / 33°C 61°F / 16°C 36% 30.06 in
(1018 mb)
SSW 4.6 mph
(SSW 7 kph)
- 10SM
13:15
Clear
91°F / 33°C 63°F / 17°C 38% 30.09 in
(1019 mb)
WNW 3.5 mph
(WNW 6 kph)
- 10SM
12:55
Partly Cloudy
90°F / 32°C 63°F / 17°C 41% 30.09 in
(1019 mb)
Calm - 10SM
12:35
Partly Cloudy
90°F / 32°C 64°F / 18°C 43% 30.09 in
(1019 mb)
Calm - 10SM
12:15
Partly Cloudy
88°F / 31°C 64°F / 18°C 46% 30.12 in
(1020 mb)
Calm - 10SM
11:55
Mostly Cloudy
88°F / 31°C 64°F / 18°C 46% 30.12 in
(1020 mb)
Calm - 10SM
11:35
Partly Cloudy
88°F / 31°C 66°F / 19°C 49% 30.12 in
(1020 mb)
Calm - 10SM
11:15
Clear
86°F / 30°C 66°F / 19°C 52% 30.12 in
(1020 mb)
W 4.6 mph
(W 7 kph)
- 10SM
10:55
Clear
86°F / 30°C 64°F / 18°C 49% 30.12 in
(1020 mb)
NW 3.5 mph
(NW 6 kph)
- 10SM
10:35
Clear
86°F / 30°C 66°F / 19°C 52% 30.12 in
(1020 mb)
N 3.5 mph
(N 6 kph)
- 10SM
10:15
Clear
Light Rain
84°F / 29°C 66°F / 19°C 55% 30.15 in
(1021 mb)
W 4.6 mph
(W 7 kph)
- 10SM
09:55
Clear
Light Rain
82°F / 28°C 68°F / 20°C 62% 30.15 in
(1021 mb)
SSW 4.6 mph
(SSW 7 kph)
- 10SM
09:35
Clear
Light Rain
81°F / 27°C 70°F / 21°C 70% 30.15 in
(1021 mb)
W 4.6 mph
(W 7 kph)
- 10SM
09:15
Clear
Light Rain
79°F / 26°C 68°F / 20°C 70% 30.15 in
(1021 mb)
W 5.8 mph
(W 9 kph)
- 10SM
08:55
Clear
Light Rain
79°F / 26°C 70°F / 21°C 74% 30.15 in
(1021 mb)
SW 4.6 mph
(SW 7 kph)
- 10SM
08:35
Partly Cloudy
Light Rain
77°F / 25°C 68°F / 20°C 74% 30.15 in
(1021 mb)
SSW 6.9 mph
(SSW 11 kph)
- 10SM
08:15
Mostly Cloudy
Light Rain
77°F / 25°C 70°F / 21°C 79% 30.15 in
(1021 mb)
W 4.6 mph
(W 7 kph)
- 10SM
07:55
Overcast
Light Rain
75°F / 24°C 70°F / 21°C 83% 30.15 in
(1021 mb)
W 3.5 mph
(W 6 kph)
- 10SM
07:35
Mostly Cloudy
Light Rain
75°F / 24°C 68°F / 20°C 78% 30.15 in
(1021 mb)
SSW 4.6 mph
(SSW 7 kph)
- 10SM
07:15
Partly Cloudy
Light Rain
77°F / 25°C 68°F / 20°C 74% 30.15 in
(1021 mb)
SSW 5.8 mph
(SSW 9 kph)
- 10SM
06:55
Partly Cloudy
Light Rain
75°F / 24°C 68°F / 20°C 78% 30.15 in
(1021 mb)
SW 8.1 mph
(SW 13 kph)
- 10SM
06:35
Partly Cloudy
73°F / 23°C 68°F / 20°C 83% 30.15 in
(1021 mb)
SW 5.8 mph
(SW 9 kph)
- 10SM
06:15
Partly Cloudy
Light Rain
73°F / 23°C 68°F / 20°C 83% 30.15 in
(1021 mb)
SSW 4.6 mph
(SSW 7 kph)
- 10SM
05:55
Partly Cloudy
Light Rain
72°F / 22°C 66°F / 19°C 83% 30.15 in
(1021 mb)
SW 3.5 mph
(SW 6 kph)
- 10SM
05:35
Mostly Cloudy
Light Rain
72°F / 22°C 66°F / 19°C 83% 30.15 in
(1021 mb)
SW 4.6 mph
(SW 7 kph)
- 10SM
05:15
Partly Cloudy
Light Rain
72°F / 22°C 66°F / 19°C 83% 30.15 in
(1021 mb)
SW 3.5 mph
(SW 6 kph)
- 10SM
04:55
Mostly Cloudy
Light Rain
70°F / 21°C 66°F / 19°C 88% 30.12 in
(1020 mb)
SW 3.5 mph
(SW 6 kph)
- 10SM
04:35
Mostly Cloudy
Light Rain
70°F / 21°C 66°F / 19°C 88% 30.12 in
(1020 mb)
Calm - 10SM
04:15
Overcast
Light Rain
70°F / 21°C 66°F / 19°C 88% 30.12 in
(1020 mb)
Calm - 10SM
03:55
Overcast
Light Rain
70°F / 21°C 66°F / 19°C 88% 30.12 in
(1020 mb)
Calm - 10SM
03:35
Overcast
Light Rain
70°F / 21°C 66°F / 19°C 88% 30.12 in
(1020 mb)
Calm - 10SM
03:15
Overcast
Light Rain
70°F / 21°C 68°F / 20°C 94% 30.12 in
(1020 mb)
Calm - 10SM
02:55
Overcast
Light Rain
70°F / 21°C 66°F / 19°C 88% 30.12 in
(1020 mb)
Calm - 10SM
02:35
Mostly Cloudy
Light Rain
70°F / 21°C 66°F / 19°C 88% 30.15 in
(1021 mb)
Calm - 10SM
02:15
Partly Cloudy
Light Rain
72°F / 22°C 66°F / 19°C 83% 30.15 in
(1021 mb)
Calm - 10SM
01:55
Partly Cloudy
Light Rain
72°F / 22°C 66°F / 19°C 83% 30.15 in
(1021 mb)
Calm - 10SM
01:35
Partly Cloudy
Light Rain
73°F / 23°C 66°F / 19°C 78% 30.15 in
(1021 mb)
S 3.5 mph
(S 6 kph)
- 10SM
01:15
Partly Cloudy
Light Rain
73°F / 23°C 66°F / 19°C 78% 30.15 in
(1021 mb)
SSE 3.5 mph
(SSE 6 kph)
- 10SM
00:55
Partly Cloudy
Light Rain
73°F / 23°C 66°F / 19°C 78% 30.15 in
(1021 mb)
SW 3.5 mph
(SW 6 kph)
- 10SM
00:35
Clear
72°F / 22°C 66°F / 19°C 83% 30.15 in
(1021 mb)
SW 4.6 mph
(SW 7 kph)
- 10SM
00:15
Clear
68°F / 20°C 68°F / 20°C 100% 30.18 in
(1022 mb)
SW 3.5 mph
(SW 6 kph)
- 10SM
Time Weather Temperature Dewpoint Humidity Pressure Winds Precip Visibility


Weather for websites

WeatherForYou.com, LLC is not responsible for any damages or problems caused by this service. Current weather conditions are obtained from the closest station including government and personal stations which may have varying degrees of accuracy. Weather forecasts are derived from the NOAA NDFD. Like all things, this site belongs to Jesus Christ... He just trusts us to maintain it. If you have any questions or comments email webmaster@weatherforyou.com

Copyright © 2015, WeatherForYou.com LLC. All rights reserved.